Tomahawk, WI

5:50 AM CDT on August 20, 2017 (GMT -0500)
Tomahawk

Weather History for KTKV - September, 2013

Change the Weather History Date:

Tuesday, September 3, 2013

  Actual Average (KRHI) Record (KRHI)
Temperature  
Mean Temperature 52 °F -  
Max Temperature 71 °F 72 °F 88 °F (1960)
Min Temperature 34 °F 50 °F 31 °F (1974)
Degree Days  
Heating Degree Days 13    
Growing Degree Days 2 (Base 50)    
Moisture  
Dew Point 45 °F    
Average Humidity 76    
Maximum Humidity 97    
Minimum Humidity 45    
Precipitation  
Precipitation 0.00 in - - ()
Sea Level Pressure  
Sea Level Pressure 30.04 in    
Wind  
Wind Speed 2 mph (West)    
Max Wind Speed 9 mph    
Max Gust Speed -    
Visibility 9 miles    
Events      
Averages and records for this station are not official NWS values.
T = Trace of Precipitation, MM = Missing Value Source: NWS Daily Summary

Daily Weather History Graph

Daily Weather History Graph

Search for Another Location

Airport or City:

Trip Planner

Search our weather history database for the weather conditions in past years. The results will help you decide how hot, cold, wet, or windy it might be!

Date:

Astronomy

Sep. 03, 2013 Rise Set
Actual Time 6:23 AM CDT 7:32 PM CDT
Civil Twilight 5:52 AM CDT 8:03 PM CDT
Nautical Twilight 5:16 AM CDT 8:39 PM CDT
Astronomical Twilight 4:37 AM CDT 9:17 PM CDT
Moon 4:34 AM CDT (9/3) 6:20 PM CDT (9/3)
Length of Visible Light 14h 10m
Length of Day
13h 09m
Waning Crescent, 3% of the Moon is Illuminated
Sep 3
Waning Crescent
Sep 5
New
Sep 12
First Quarter
Sep 19
Full
Sep 26
Last Quarter

Hourly Weather History & Observations

Time (CDT) Temp. Dew Point Humidity Pressure Visibility Wind Dir Wind Speed Gust Speed Precip Events Conditions
12:15 AM 40.1 °F 38.8 °F 95% 30.05 in 10.0 mi Calm Calm - N/A   Clear
12:35 AM 41.0 °F 40.1 °F 97% 30.05 in 2.5 mi Calm Calm - N/A   Clear
12:55 AM 39.2 °F 37.9 °F 95% 30.06 in 1.8 mi Calm Calm - N/A   Mist
1:15 AM 38.7 °F 37.6 °F 96% 30.06 in 7.0 mi Calm Calm - N/A   Clear
1:35 AM 37.9 °F 36.9 °F 96% 30.06 in 10.0 mi Calm Calm - N/A   Clear
1:55 AM 37.8 °F 36.7 °F 96% 30.06 in 10.0 mi Calm Calm - N/A   Clear
2:15 AM 37.4 °F 36.5 °F 97% 30.06 in 2.5 mi Calm Calm - N/A   Clear
2:35 AM 36.9 °F 35.8 °F 96% 30.06 in 4.0 mi Calm Calm - N/A   Clear
2:55 AM 37.6 °F 36.7 °F 97% 30.06 in 10.0 mi Calm Calm - N/A   Clear
3:15 AM 35.6 °F 34.5 °F 96% 30.06 in 10.0 mi Calm Calm - N/A   Clear
3:35 AM 36.9 °F 36.0 °F 97% 30.05 in 1.5 mi Calm Calm - N/A   Mist
3:55 AM 36.3 °F 35.2 °F 96% 30.05 in 2.0 mi Calm Calm - N/A   Clear
4:15 AM 35.8 °F 34.9 °F 97% 30.06 in 7.0 mi Calm Calm - N/A   Clear
4:35 AM 34.9 °F 33.8 °F 96% 30.06 in 7.0 mi Calm Calm - N/A   Clear
4:55 AM 34.9 °F 34.0 °F 97% 30.05 in 10.0 mi Calm Calm - N/A   Clear
5:15 AM 34.7 °F 33.4 °F 95% 30.06 in 10.0 mi Calm Calm - N/A   Clear
5:35 AM 35.2 °F 34.3 °F 97% 30.07 in 10.0 mi Calm Calm - N/A   Clear
5:55 AM 35.1 °F 34.0 °F 96% 30.07 in 10.0 mi Calm Calm - N/A   Clear
6:15 AM 34.7 °F 33.8 °F 97% 30.07 in 10.0 mi Calm Calm - N/A   Clear
6:35 AM 34.3 °F 33.4 °F 97% 30.07 in 10.0 mi Calm Calm - N/A   Clear
6:55 AM 34.9 °F 34.0 °F 97% 30.08 in 10.0 mi Calm Calm - N/A   Clear
7:15 AM 36.9 °F 36.0 °F 97% 30.08 in 7.0 mi Calm Calm - N/A   Clear
7:35 AM 39.9 °F 39.0 °F 97% 30.09 in 10.0 mi Calm Calm - N/A   Clear
7:55 AM 44.1 °F 43.3 °F 97% 30.09 in 10.0 mi Calm Calm - N/A   Clear
8:15 AM 46.6 °F 45.9 °F 97% 30.09 in 10.0 mi West 3.5 mph - N/A   Clear
8:35 AM 49.8 °F 48.9 °F 97% 30.09 in 10.0 mi West 4.6 mph - N/A   Clear
8:55 AM 52.7 °F 50.2 °F 91% 30.09 in 10.0 mi WNW 3.5 mph - N/A   Clear
9:15 AM 54.9 °F 50.4 °F 85% 30.09 in 10.0 mi Calm Calm - N/A   Clear
9:35 AM 57.2 °F 50.4 °F 78% 30.09 in 10.0 mi WNW 5.8 mph - N/A   Clear
9:55 AM 59.0 °F 50.9 °F 74% 30.09 in 10.0 mi WNW 6.9 mph - N/A   Clear
10:15 AM 60.3 °F 51.1 °F 72% 30.09 in 10.0 mi West 5.8 mph - N/A   Clear
10:35 AM 61.5 °F 49.3 °F 64% 30.09 in 10.0 mi West 8.1 mph - N/A   Clear
10:55 AM 62.4 °F 48.7 °F 61% 30.09 in 10.0 mi WSW 4.6 mph - N/A   Clear
11:15 AM 63.1 °F 48.6 °F 59% 30.09 in 10.0 mi West 5.8 mph - N/A   Clear
11:35 AM 64.2 °F 49.3 °F 58% 30.08 in 10.0 mi WSW 4.6 mph - N/A   Clear
11:55 AM 64.6 °F 49.1 °F 57% 30.07 in 10.0 mi WSW 5.8 mph - N/A   Clear
12:15 PM 65.3 °F 49.3 °F 56% 30.07 in 10.0 mi WSW 6.9 mph - N/A   Clear
12:35 PM 66.2 °F 49.8 °F 55% 30.06 in 10.0 mi West 9.2 mph - N/A   Clear
12:55 PM 66.2 °F 49.6 °F 55% 30.06 in 10.0 mi SW 6.9 mph - N/A   Clear
1:15 PM 67.1 °F 50.0 °F 54% 30.05 in 10.0 mi West 3.5 mph - N/A   Clear
1:35 PM 68.2 °F 50.5 °F 53% 30.04 in 10.0 mi Calm Calm - N/A   Clear
1:55 PM 68.4 °F 49.3 °F 50% 30.03 in 10.0 mi WSW 6.9 mph - N/A   Clear
2:15 PM 68.9 °F 47.8 °F 47% 30.02 in 10.0 mi West 9.2 mph - N/A   Clear
2:35 PM 69.3 °F 47.8 °F 46% 30.02 in 10.0 mi WSW 4.6 mph - N/A   Clear
2:55 PM 69.6 °F 49.1 °F 48% 30.02 in 10.0 mi West 5.8 mph - N/A   Clear
3:15 PM 70.5 °F 48.6 °F 46% 30.02 in 10.0 mi West 8.1 mph - N/A   Clear
3:35 PM 70.3 °F 48.9 °F 47% 30.02 in 10.0 mi West 8.1 mph - N/A   Clear
3:55 PM 70.9 °F 48.4 °F 45% 30.02 in 10.0 mi West 9.2 mph - N/A   Clear
4:15 PM 70.7 °F 48.4 °F 45% 30.02 in 10.0 mi West 9.2 mph - N/A   Clear
4:35 PM 70.7 °F 49.6 °F 47% 30.01 in 10.0 mi West 5.8 mph - N/A   Clear
4:55 PM 70.9 °F 50.5 °F 48% 30.00 in 10.0 mi WNW 8.1 mph - N/A   Clear
5:15 PM 70.5 °F 49.8 °F 48% 30.00 in 10.0 mi West 6.9 mph - N/A   Clear
5:35 PM 70.0 °F 50.0 °F 49% 30.00 in 10.0 mi WSW 5.8 mph - N/A   Clear
5:55 PM 69.3 °F 50.2 °F 51% 30.00 in 10.0 mi WSW 4.6 mph - N/A   Clear
6:15 PM 68.9 °F 51.6 °F 54% 29.99 in 10.0 mi WSW 5.8 mph - N/A   Clear
6:35 PM 67.5 °F 51.8 °F 57% 29.99 in 10.0 mi Calm Calm - N/A   Clear
6:55 PM 66.4 °F 51.8 °F 59% 29.99 in 10.0 mi Calm Calm - N/A   Clear
7:15 PM 64.2 °F 52.3 °F 65% 29.99 in 10.0 mi Calm Calm - N/A   Clear
7:35 PM 61.9 °F 52.3 °F 71% 30.00 in 10.0 mi Calm Calm - N/A   Clear
7:55 PM 59.5 °F 52.5 °F 78% 30.00 in 10.0 mi Calm Calm - N/A   Clear
8:15 PM 58.6 °F 52.2 °F 79% 30.01 in 10.0 mi Calm Calm - N/A   Clear
8:35 PM 59.4 °F 52.0 °F 77% 30.01 in 10.0 mi SW 3.5 mph - N/A   Clear
8:55 PM 58.3 °F 51.3 °F 77% 30.01 in 10.0 mi Calm Calm - N/A   Clear
9:15 PM 56.1 °F 50.7 °F 82% 30.01 in 10.0 mi Calm Calm - N/A   Clear
9:35 PM 54.0 °F 50.9 °F 89% 30.01 in 10.0 mi Calm Calm - N/A   Clear
9:55 PM 55.0 °F 50.7 °F 85% 30.01 in 10.0 mi Calm Calm - N/A   Clear
10:15 PM 52.0 °F 48.2 °F 87% 30.02 in 10.0 mi Calm Calm - N/A   Clear
10:35 PM 55.9 °F 51.1 °F 84% 30.01 in 10.0 mi Calm Calm - N/A   Clear
10:55 PM 56.1 °F 51.1 °F 83% 30.02 in 10.0 mi Calm Calm - N/A   Clear
11:15 PM 52.2 °F 48.9 °F 89% 30.02 in 10.0 mi Calm Calm - N/A   Clear
11:35 PM 50.5 °F 48.6 °F 93% 30.02 in 10.0 mi Calm Calm - N/A   Clear
11:55 PM 48.6 °F 46.6 °F 93% 30.02 in 7.0 mi Calm Calm - N/A   Clear